Location: Aulus
(42.7909°N, 1.3399°E)
Time: 05:39:21
(UTC+00:00)

Cosmos 2082 Rocket - Pass Details

Date: 19 May 2025
Orbit: 832 x 853 km, 71.0° (Epoch: 18 June)

Event Time Altitude Azimuth Distance (km) Brightness Sun altitude
Exits shadow 21:41:51 41° 144° (SE) 1,184 2.4 -20.5°
Maximum altitude 21:43:04 48° 108° (ESE) 1,075 2.4 -20.7°
Drops below altitude 10° 21:48:26 10° 35° (NE) 2,452 4.9 -21.2°
Sets 21:50:57 0° 30° (NNE) 3,392 5.7 -21.4°
